RH
31 31 30 29 28 26 23 19 17 17 18 18 19 18 18 17 16 15 13 13 12 11 11 11 11 12 13 15 16 16 16 16 16 17 18 18 17 18 17 17 17 17 17 16 16 16 16 16 16 16 16 16 16 17 15 17 17 17 19 18 21 19 28 43 45 43 28 39 54 20 5 15 17 15 12 15 17 15 15 15 15 18 22 19 21 42 70 74
36 34 32 30 26 23 20 18 17 18 18 19 18 18 17 15 14 12 11 11 10 10 9 9 9 9 11 13 15 17 17 17 17 18 18 18 18 18 18 19 18 17 17 16 17 16 16 16 16 16 16 17 17 17 16 17 17 18 19 20 22 23 40 46 31 27 20 26 36 16 12 18 17 18 14 17 20 19 17 16 16 15 16 20 34 52 65 74
42 38 34 29 24 20 18 17 17 18 19 18 18 16 14 12 11 10 9 9 8 8 7 7 7 8 9 11 14 16 17 17 17 18 18 18 18 18 19 19 19 19 18 17 17 17 17 17 17 17 17 17 18 17 17 17 17 19 20 20 22 27 37 32 17 20 23 23 25 19 19 20 19 18 16 19 22 21 19 18 16 13 20 35 47 58 77 90
45 41 33 26 21 18 17 18 18 19 18 17 15 13 11 10 9 9 8 8 7 6 6 6 6 6 8 10 13 14 16 16 16 17 17 17 18 18 18 18 19 18 17 17 17 17 18 18 18 18 18 18 17 18 18 18 18 18 18 20 24 25 25 21 20 23 23 22 22 21 23 22 20 19 19 20 21 23 25 22 18 20 25 36 51 62 81 94
47 40 31 23 19 17 17 18 19 18 17 15 13 11 10 9 9 8 8 7 6 6 5 5 5 5 7 9 11 13 15 15 15 16 16 17 17 17 17 17 18 18 18 18 17 18 18 19 19 18 18 18 18 18 18 18 18 18 17 19 22 22 20 21 21 19 19 20 22 23 24 23 20 20 21 22 22 28 38 36 28 28 23 30 60 66 59 79
46 36 27 20 17 17 19 19 18 16 15 13 11 11 10 9 9 8 8 7 6 6 6 6 6 6 7 8 10 12 14 14 14 15 15 16 16 16 15 15 16 18 18 17 18 18 18 18 19 18 18 18 17 18 19 18 18 18 18 19 20 19 19 20 18 17 19 20 23 23 23 22 22 24 22 23 23 25 36 39 33 29 21 25 53 59 49 72
40 30 23 18 17 19 19 19 17 15 13 12 12 11 11 10 10 9 8 7 6 6 7 7 7 8 8 9 10 11 12 13 13 14 14 14 14 14 14 15 16 17 18 18 18 17 18 18 17 16 16 16 16 16 16 16 17 19 19 18 18 18 18 18 18 18 18 20 22 21 22 23 24 25 22 25 24 22 25 28 28 25 26 31 43 50 50 68
33 24 19 17 19 20 19 18 15 14 13 13 13 13 13 12 11 10 9 8 7 7 8 8 9 9 10 10 10 11 11 12 12 12 12 12 13 12 13 14 15 16 17 17 17 17 16 15 13 12 11 11 12 13 14 14 17 18 19 18 17 18 18 18 18 18 18 20 20 20 23 23 24 24 22 26 24 24 26 23 21 20 29 34 35 45 44 48
27 20 18 18 20 20 18 16 15 14 14 14 14 14 14 14 14 13 11 10 8 8 8 9 10 10 11 11 10 10 11 11 11 12 11 11 11 11 12 13 14 16 16 17 16 14 12 10 9 8 8 9 9 10 12 13 15 17 18 18 18 17 17 18 17 17 18 19 19 20 22 22 22 22 24 24 21 24 25 21 21 22 26 31 39 47 36 27
24 19 18 20 21 20 17 16 15 15 14 14 14 14 14 14 14 14 14 12 10 9 8 9 11 11 11 10 10 10 10 10 11 11 11 11 11 11 11 12 13 13 13 13 10 9 8 7 7 7 8 8 9 10 11 12 14 15 16 17 17 18 17 17 16 17 18 17 19 19 19 21 19 22 28 25 22 27 24 19 25 33 36 47 56 44 33 40
21 19 20 22 22 19 17 16 16 15 15 14 14 14 14 14 14 14 15 15 14 12 9 9 10 11 11 10 10 9 9 10 10 10 10 10 10 10 10 10 10 10 10 8 7 6 6 6 6 7 8 8 9 9 10 12 12 13 15 16 16 16 16 16 16 16 16 16 17 18 19 20 18 24 29 26 26 27 24 24 26 37 49 58 59 39 38 65
20 20 22 24 22 18 18 17 16 16 15 15 15 14 14 14 14 14 15 15 16 15 13 11 9 10 11 11 10 9 9 9 9 10 9 9 9 9 8 8 7 7 7 6 6 6 5 6 6 6 6 7 9 8 10 10 11 13 12 12 14 14 14 14 14 14 15 16 14 16 17 16 19 25 23 22 28 25 22 27 27 35 49 56 60 53 51 69
20 22 25 25 22 19 18 17 17 17 17 16 15 15 15 15 15 15 15 16 16 16 16 15 12 11 10 10 11 10 9 9 9 8 8 8 8 8 8 7 7 6 6 6 6 6 6 6 5 6 6 6 7 7 9 8 9 10 9 12 10 10 13 11 12 14 12 14 14 14 22 35 43 35 21 21 25 23 22 26 36 47 49 47 53 56 49 53
22 24 26 26 22 19 18 18 19 18 18 17 17 17 16 16 16 16 17 17 18 17 17 17 16 14 11 11 10 10 11 9 9 8 8 8 7 7 7 6 6 6 6 6 6 6 6 6 6 6 4 6 7 6 8 8 9 8 8 10 6 19 33 19 7 12 12 12 13 11 28 62 76 52 33 35 28 22 26 21 28 43 45 44 48 57 56 49
24 26 28 27 22 20 18 18 19 20 19 18 18 18 18 18 18 18 18 19 19 19 19 18 17 17 15 13 11 11 11 10 10 10 8 7 7 7 7 7 7 7 7 6 7 7 7 6 6 6 6 7 5 6 7 6 8 6 11 17 12 33 60 43 15 15 21 18 12 10 27 60 78 63 49 53 41 28 34 26 20 34 52 62 59 66 73 63
26 27 29 28 24 20 19 19 20 20 20 20 19 19 19 20 20 20 20 20 21 21 20 19 18 18 17 15 14 13 11 11 11 10 11 9 8 7 6 7 6 6 7 6 7 7 7 7 6 6 6 6 6 8 8 11 16 7 13 42 46 43 60 62 35 21 26 20 9 10 33 64 70 59 53 54 47 38 44 39 24 27 47 66 65 62 69 67
28 29 30 29 25 21 19 18 19 20 21 20 20 20 20 21 22 22 22 21 22 22 21 20 19 19 18 16 15 15 13 12 11 10 11 10 10 10 8 8 7 7 7 7 8 7 8 8 7 9 6 7 8 4 10 32 50 33 21 48 67 50 52 72 55 25 16 11 15 20 32 64 68 59 61 53 41 38 45 49 39 28 30 45 55 56 57 58
30 30 30 29 25 22 19 19 19 19 20 20 21 21 21 22 22 23 23 23 24 23 22 21 19 21 23 20 16 16 15 13 13 12 11 11 11 11 10 10 8 8 7 7 8 8 10 9 9 10 7 9 6 9 35 60 76 75 56 53 61 46 39 68 74 49 28 12 36 56 38 52 75 75 76 56 33 32 37 45 48 42 34 32 42 53 58 58
32 31 30 28 24 21 19 18 19 19 19 20 21 21 21 23 23 24 24 24 25 24 23 21 20 21 22 20 16 17 16 15 14 13 13 12 11 11 11 12 11 11 11 9 10 10 10 11 11 12 13 15 9 14 37 48 52 62 62 60 71 64 44 56 66 58 51 27 34 62 38 35 69 79 78 60 29 24 31 37 46 51 46 37 37 41 46 54
34 32 30 25 21 19 18 18 18 18 19 20 20 21 22 23 24 25 26 26 26 25 24 22 20 19 19 17 17 18 17 17 16 14 14 13 13 13 11 12 12 12 12 11 12 12 12 12 12 17 24 25 17 11 14 17 19 20 23 30 47 58 55 63 64 48 45 25 22 61 59 42 62 74 82 68 28 15 26 33 40 47 45 40 40 38 35 42
35 34 31 27 20 16 15 17 17 18 19 19 20 22 23 24 26 27 27 26 26 25 24 22 20 18 17 17 17 17 18 19 17 15 15 13 13 14 13 14 13 13 14 13 13 13 14 15 15 18 20 20 15 13 13 12 14 11 10 13 18 36 54 69 74 53 33 14 21 70 78 45 40 52 56 42 19 14 25 31 33 36 39 37 36 36 31 32
37 33 30 28 24 18 15 16 17 18 19 20 22 23 26 27 27 27 27 27 26 25 23 21 19 18 17 17 16 16 18 18 19 18 17 16 14 13 14 14 13 14 13 12 15 13 12 16 16 14 15 15 14 14 15 14 15 15 14 14 22 48 66 62 55 43 26 13 26 65 73 43 34 43 36 19 16 19 19 25 28 29 36 38 36 36 29 25
37 31 26 22 20 19 17 17 19 20 21 23 25 27 29 30 30 31 29 28 27 25 23 21 18 16 15 15 15 16 18 19 18 18 18 18 18 17 15 14 16 17 15 17 15 13 28 38 23 14 14 14 14 15 15 16 16 18 19 14 23 52 70 64 54 42 28 16 18 38 50 43 37 36 30 18 17 21 19 22 27 26 30 32 34 36 31 25
34 31 26 22 19 20 21 22 23 25 27 29 30 31 32 32 33 33 31 29 28 24 20 17 15 15 14 13 14 14 17 23 22 19 21 20 18 18 17 17 16 13 16 20 14 19 43 46 23 16 18 14 14 15 13 17 16 16 21 17 27 52 58 58 59 48 41 34 22 22 24 24 25 27 33 30 18 17 19 18 21 24 27 31 30 29 32 28
28 29 29 27 26 27 28 30 32 33 34 34 35 35 35 36 36 35 32 27 26 25 21 18 14 13 12 11 12 11 14 22 22 19 22 21 19 20 19 18 19 30 42 26 14 34 45 30 20 19 17 15 15 14 13 15 15 21 29 20 23 40 40 41 44 33 34 42 37 31 26 26 34 44 61 64 42 27 26 19 18 21 23 29 28 27 37 31
25 28 31 33 35 37 37 38 39 40 39 38 38 37 37 38 36 35 29 26 41 48 38 27 19 16 18 15 14 16 16 19 22 20 19 20 20 20 21 20 19 41 58 31 14 35 33 16 21 20 16 19 18 17 18 14 15 26 36 32 25 22 20 25 30 26 29 41 42 35 36 45 57 66 74 74 57 40 35 27 20 18 17 21 23 28 36 32
31 34 38 40 44 46 47 47 46 44 42 40 39 38 39 37 32 31 25 29 53 62 46 29 20 20 23 22 22 25 21 25 38 37 25 22 21 19 22 26 29 33 31 19 20 30 22 14 18 15 14 16 14 18 20 17 20 28 34 41 41 31 22 19 19 23 27 37 41 32 33 42 54 70 74 68 61 52 47 40 31 24 19 19 21 23 27 27
46 44 46 48 49 49 50 51 51 51 50 48 45 41 37 32 27 22 21 33 50 51 39 28 22 22 23 22 24 25 25 31 41 42 35 29 24 23 25 34 57 61 33 17 25 27 24 29 27 21 18 16 19 25 24 23 26 31 37 41 41 37 32 27 24 25 25 31 35 35 44 45 41 55 61 52 48 54 61 53 40 37 31 24 23 22 25 30
62 60 57 55 53 53 53 52 51 51 51 51 49 43 35 28 20 14 24 46 56 51 43 33 28 28 28 27 28 28 31 34 33 34 37 37 31 31 34 37 53 64 45 30 33 31 33 41 39 33 30 30 34 30 25 31 30 29 38 37 31 31 30 29 29 29 32 34 31 39 61 66 54 57 67 62 50 57 74 62 45 48 44 33 28 24 28 33
63 66 66 64 62 61 60 56 52 49 45 43 40 35 29 20 16 26 40 44 46 50 48 42 37 35 35 39 39 36 36 37 37 38 38 39 38 39 43 44 45 51 49 46 47 42 38 43 44 43 41 41 42 34 30 35 29 23 31 32 29 33 34 30 29 32 36 34 31 41 60 63 56 58 72 76 64 64 75 65 54 56 49 40 36 31 32 35
59 59 63 65 65 65 63 58 54 50 46 40 33 26 19 13 19 42 58 51 47 50 47 43 39 35 39 43 44 48 49 44 44 47 47 45 45 45 47 48 50 52 50 51 55 52 47 45 41 40 41 41 38 37 37 37 34 32 31 29 32 43 47 42 45 52 46 37 41 51 55 47 41 48 63 69 66 67 73 69 59 48 39 37 37 37 35 35
56 59 61 63 63 64 63 60 57 54 49 41 32 22 15 18 29 45 59 60 56 51 46 43 37 36 40 41 49 63 64 59 57 55 58 62 62 61 57 53 56 64 71 75 77 75 72 65 57 48 38 34 33 32 32 29 27 29 30 30 40 60 74 70 71 77 69 60 64 68 65 54 44 48 57 58 55 55 59 60 51 38 35 34 34 37 35 36
51 55 58 61 64 65 64 62 59 57 50 40 29 19 14 20 32 46 59 62 54 49 54 52 41 40 41 42 58 64 50 49 60 60 60 69 71 66 62 57 53 62 77 87 90 94 92 82 81 71 40 20 19 24 41 50 40 32 31 36 45 64 86 87 79 83 82 76 77 79 75 68 60 53 50 46 42 41 41 40 36 33 35 31 26 27 27 31
58 57 57 60 64 66 65 62 59 56 48 35 24 19 18 16 19 34 51 61 59 52 51 48 42 41 37 39 56 59 46 46 51 50 51 55 49 42 44 47 40 37 42 50 63 79 85 81 86 81 57 35 21 19 36 50 46 39 40 47 52 60 75 82 81 88 93 87 86 86 75 67 67 63 58 55 49 47 44 39 35 31 28 24 21 23 27 32
69 66 65 66 68 69 68 64 61 54 43 31 23 19 21 17 16 24 32 42 53 49 38 30 28 33 36 38 41 40 44 52 49 44 45 43 41 42 44 43 37 25 17 26 42 45 48 61 65 54 43 34 23 17 14 14 23 29 30 37 46 52 60 66 71 75 78 80 82 76 63 60 65 59 54 55 52 47 43 39 39 36 33 32 29 31 36 36
60 64 66 68 68 68 66 61 56 48 35 26 21 19 21 23 27 32 33 35 43 45 35 23 16 22 35 46 46 35 29 35 41 44 43 37 36 41 41 35 31 23 13 21 38 33 32 52 52 30 20 14 8 10 4 3 18 23 25 39 54 64 65 55 52 52 48 50 52 48 40 41 53 59 53 47 44 44 41 36 35 35 36 39 37 36 38 33
42 46 51 54 56 55 53 49 45 39 30 20 17 17 18 23 24 23 26 29 30 31 31 30 27 26 33 45 54 51 32 21 25 31 35 36 34 33 31 24 20 21 15 14 24 25 27 42 45 34 29 22 12 9 4 4 9 9 24 48 56 58 54 41 37 42 40 38 35 38 41 37 50 76 78 60 50 52 52 45 37 33 32 37 42 42 42 42
29 32 35 37 39 40 40 38 34 29 25 20 17 15 14 19 22 17 16 18 17 18 20 25 32 33 37 41 53 65 48 23 22 25 26 35 38 34 31 24 16 14 13 14 20 23 19 22 34 43 41 29 19 14 8 5 3 1 12 27 33 40 48 47 44 42 42 43 38 41 51 50 60 84 84 67 61 60 60 61 52 43 39 39 46 49 49 53
16 20 23 27 29 30 30 30 28 25 24 22 20 19 16 17 18 15 14 14 14 14 14 17 24 30 35 36 45 65 56 29 25 29 28 34 39 36 33 28 21 17 17 17 21 22 16 11 24 41 38 27 25 20 11 12 17 16 11 9 15 22 30 39 42 39 38 42 46 46 49 59 79 97 86 68 71 68 61 64 58 51 48 43 45 50 53 60
11 12 13 18 21 24 25 25 24 23 23 24 23 25 28 27 22 16 14 13 12 13 13 16 21 26 31 31 34 46 46 31 26 28 30 34 35 33 30 25 18 16 17 17 17 16 14 10 13 25 28 25 31 31 24 30 41 45 39 31 25 20 27 35 33 35 37 40 49 45 38 53 75 88 82 72 79 78 65 63 59 55 55 49 42 41 46 59
9 9 8 11 15 18 21 21 22 22 22 24 24 24 30 33 28 26 23 17 12 12 13 15 19 22 24 25 26 28 28 24 22 24 28 32 32 28 24 21 17 13 12 13 13 11 12 12 10 15 20 26 40 42 31 26 29 36 44 48 42 39 53 50 30 35 47 48 56 52 45 59 66 65 77 82 81 74 65 67 65 58 57 55 50 44 43 54
8 9 7 9 11 13 16 18 21 23 22 24 25 27 38 42 33 27 24 19 14 13 13 13 15 19 20 20 24 28 26 21 20 21 21 26 36 32 21 18 18 15 14 13 12 11 11 14 13 12 10 15 28 32 22 17 16 15 19 27 29 30 42 37 25 41 52 40 44 49 44 50 50 50 68 74 68 62 58 59 59 54 52 54 54 50 47 51
6 8 8 8 8 9 11 14 17 21 23 27 28 28 36 42 36 27 22 17 15 14 14 15 13 14 16 17 20 23 23 22 22 21 19 22 30 28 19 17 16 14 15 13 12 12 13 14 13 13 11 10 13 14 10 9 10 8 6 8 10 11 16 17 15 30 34 18 26 42 41 42 47 57 70 70 66 69 65 60 58 54 49 45 45 47 50 54
9 7 6 7 8 8 8 11 13 16 20 26 32 29 26 26 26 25 21 17 17 16 16 18 16 15 16 16 17 17 18 21 20 19 21 21 23 23 18 15 13 13 13 12 13 14 16 19 15 12 13 11 10 13 17 16 14 14 13 10 8 5 8 13 14 22 24 14 17 27 30 39 49 57 66 69 69 71 68 64 66 64 56 50 47 46 45 48
18 14 9 6 7 8 8 9 10 12 16 21 26 28 25 23 20 19 19 18 18 18 18 19 18 16 16 16 17 16 17 19 19 18 18 19 21 20 17 15 14 14 13 12 14 13 13 16 14 12 13 11 13 27 39 42 41 38 33 28 25 19 19 20 16 20 28 23 17 16 17 31 43 40 41 49 58 62 57 57 65 69 66 62 57 50 44 42
27 22 18 14 10 7 7 8 9 12 17 19 21 24 25 24 21 19 20 19 19 19 19 19 19 17 18 18 17 16 17 18 18 18 17 18 18 14 13 15 13 12 13 12 12 13 12 12 11 12 12 11 18 29 35 36 36 36 35 35 35 34 36 34 21 14 19 17 14 15 17 30 43 44 43 50 62 69 64 61 68 70 66 59 52 47 45 40
44 35 28 22 18 15 11 8 7 9 12 13 14 16 19 19 18 19 20 18 17 18 19 19 19 18 18 19 17 17 17 17 17 17 16 16 17 18 21 22 16 14 14 13 13 12 12 12 12 11 12 11 13 14 15 14 14 19 21 19 23 30 35 38 28 15 15 15 9 10 17 28 40 53 71 82 83 83 80 77 81 85 79 66 57 52 47 42
60 54 45 34 27 26 21 14 11 9 8 9 11 12 12 13 14 16 20 19 15 15 17 17 18 18 18 18 19 17 17 18 17 17 18 19 16 15 19 21 21 19 12 10 13 11 10 11 10 12 16 19 19 16 15 13 12 18 19 10 11 17 16 18 14 8 17 24 16 13 18 23 29 43 67 84 83 79 83 83 84 91 90 82 81 77 63 56
69 66 63 55 44 36 27 20 17 15 12 11 10 10 10 11 11 12 15 16 13 13 14 13 14 15 14 15 15 14 15 16 15 17 25 34 32 30 34 33 34 37 28 17 14 12 14 14 9 11 16 17 21 23 22 25 24 24 23 13 8 10 8 10 8 9 26 34 30 34 35 27 28 34 43 55 57 56 64 70 76 87 90 85 86 83 72 67
73 71 70 68 64 57 45 32 23 18 20 22 17 12 11 10 10 13 13 11 11 11 10 11 12 12 13 13 12 12 13 13 13 14 20 32 38 45 52 48 46 55 53 40 35 36 38 31 18 18 20 14 15 17 20 28 29 25 24 20 13 9 8 11 12 16 28 32 33 44 42 29 33 40 41 46 49 48 51 56 66 80 86 83 79 76 75 75
67 68 69 70 71 70 65 57 43 26 22 26 23 18 18 16 13 14 14 11 10 10 9 10 12 11 16 19 14 12 14 12 11 9 7 13 21 28 36 36 39 51 52 48 54 61 61 49 31 28 29 23 22 24 24 26 25 22 23 21 15 12 14 21 26 28 33 37 39 42 35 29 36 45 45 45 49 52 52 53 61 69 74 74 71 72 74 73
47 51 55 60 65 68 70 74 72 57 42 33 24 18 19 20 20 19 19 16 16 16 15 15 16 18 26 33 28 21 19 16 14 12 11 12 12 12 15 17 22 29 31 38 51 60 67 63 48 42 39 30 30 36 36 32 25 19 17 19 25 30 31 31 32 32 35 39 40 37 33 35 44 46 40 38 48 59 62 68 78 82 78 70 67 75 81 76
Wind_Speed
20 20 19 20 20 20 20 19 19 19 19 20 20 20 21 21 21 20 20 20 20 21 21 21 22 22 23 23 23 23 23 23 22 22 21 21 20 20 19 19 18 18 17 17 17 17 17 17 18 18 19 19 19 20 20 20 21 22 24 25 25 25 22 24 28 28 30 27 30 41 33 24 28 30 30 29 30 31 31 33 35 33 34 37 32 27 25 24
20 20 20 20 20 20 20 19 19 19 20 20 21 21 21 21 21 21 20 20 20 20 21 21 21 22 22 23 23 23 23 23 22 22 22 21 21 20 20 19 19 18 18 18 18 18 18 18 18 18 19 19 20 21 19 20 21 22 23 24 25 24 22 30 36 33 33 31 35 39 31 26 28 29 30 29 29 29 30 33 35 34 36 35 28 26 25 24
20 20 20 20 20 20 20 19 19 20 20 21 21 21 21 21 20 20 20 20 20 20 20 20 21 21 22 22 22 23 23 23 23 22 22 21 21 21 20 20 20 19 19 19 19 19 19 18 19 19 20 20 21 21 20 21 20 22 24 24 24 25 30 36 35 31 31 33 36 35 29 28 28 29 29 28 28 28 28 31 35 35 34 30 27 26 25 26
21 21 20 20 20 19 19 20 20 20 20 20 20 20 20 20 20 19 19 19 19 19 19 19 19 20 21 21 22 22 22 23 22 22 22 21 21 21 21 21 21 20 20 20 19 20 19 19 19 20 20 21 22 21 22 22 20 23 24 23 24 29 33 34 31 30 32 33 32 32 28 27 28 27 27 29 28 27 27 30 34 35 33 29 26 27 28 28
21 20 20 20 19 19 19 20 20 20 20 19 19 19 18 18 18 18 18 18 17 17 17 18 18 19 20 20 21 21 21 22 21 21 21 21 22 22 22 22 22 21 20 20 20 20 20 20 20 20 21 22 22 21 23 23 21 23 22 21 26 29 29 29 30 30 31 30 29 29 28 28 27 24 26 27 26 28 28 28 31 35 34 30 28 28 29 27
21 20 20 19 19 19 19 19 19 19 18 18 17 17 16 16 16 16 16 16 15 15 15 16 16 17 18 19 20 20 21 21 20 20 21 21 21 22 22 23 23 22 21 21 21 21 21 21 21 22 22 23 24 22 25 24 20 22 22 22 26 27 26 27 28 27 27 27 27 29 28 27 24 24 27 25 26 31 29 26 29 33 33 31 31 29 28 28
20 20 19 19 19 19 19 19 18 17 17 17 16 15 15 14 14 14 14 14 14 14 14 14 14 15 16 17 18 19 20 20 20 20 20 21 21 21 22 22 22 23 22 22 22 22 22 22 22 23 22 24 25 24 25 22 19 23 24 25 25 24 25 26 26 26 25 25 27 27 26 25 23 26 26 23 28 30 28 28 29 32 31 30 31 28 28 29
19 19 19 19 18 18 18 18 17 16 16 16 15 14 13 13 12 12 12 12 12 12 12 12 13 13 14 15 17 18 19 19 19 20 20 20 20 21 21 21 22 22 22 22 22 22 22 23 23 22 23 25 24 24 24 21 22 25 25 26 24 23 25 25 26 25 24 25 26 25 25 25 24 25 24 25 29 28 28 29 30 33 30 28 29 28 27 27
19 18 18 18 18 18 17 17 16 16 16 15 15 14 13 12 12 11 11 11 11 11 11 11 12 12 13 14 16 17 18 18 19 19 19 19 19 19 20 20 20 21 21 21 21 22 23 22 22 22 23 24 22 23 23 22 25 26 25 26 24 24 26 26 26 24 23 25 25 24 25 25 24 23 24 27 29 27 27 28 29 31 28 26 29 29 27 28
18 18 18 17 17 17 17 17 16 16 16 15 15 14 13 13 12 12 11 11 10 10 10 11 11 11 12 14 15 16 16 17 17 17 17 17 17 17 18 18 19 20 20 20 21 21 21 21 22 21 22 23 22 23 22 23 26 24 24 26 25 26 27 27 26 25 25 26 25 24 25 25 23 21 24 29 27 24 26 27 28 27 26 26 28 26 26 29
18 17 17 17 17 17 17 17 16 16 15 15 15 14 14 13 13 13 12 11 10 10 10 10 11 11 12 13 14 15 15 16 16 16 16 16 16 16 16 16 17 18 18 19 19 19 19 19 20 20 22 22 22 23 23 24 26 24 24 26 26 27 28 28 27 27 27 27 26 24 26 25 22 22 26 27 23 21 25 27 26 25 25 26 26 24 26 29
17 17 17 17 17 17 17 17 16 15 15 15 14 14 14 14 13 13 12 12 11 11 10 10 10 11 12 13 13 14 14 15 15 15 15 15 15 15 15 15 16 16 16 17 17 17 18 18 19 20 21 21 21 23 23 25 25 24 26 25 26 28 28 28 28 28 26 28 28 24 25 24 20 24 29 25 22 22 23 24 25 25 24 24 24 24 25 27
17 17 18 17 17 17 17 17 16 15 15 15 14 14 14 14 14 13 13 12 11 11 11 11 11 11 12 12 13 13 14 14 14 14 14 14 14 14 15 15 15 15 15 16 16 16 16 17 17 18 19 20 22 23 22 23 23 25 24 23 26 25 26 29 28 27 26 29 28 22 19 17 18 26 27 24 24 23 22 22 23 23 22 22 25 25 25 26
18 18 18 17 17 18 18 17 16 16 15 15 14 14 14 14 14 14 13 12 12 12 12 12 11 12 12 12 12 13 14 14 14 14 14 15 14 14 14 14 15 15 15 16 15 15 14 15 16 16 18 18 20 19 20 21 20 23 20 21 22 15 20 30 26 25 26 29 27 20 15 11 18 28 25 23 25 23 22 22 22 23 21 22 25 25 26 26
18 18 18 18 18 18 19 18 17 16 16 15 14 14 14 14 14 14 14 13 13 13 12 13 13 13 13 12 12 12 14 14 14 15 15 15 14 14 14 14 15 15 15 15 14 13 12 13 14 15 15 16 17 16 17 18 18 19 16 16 14 8 18 30 25 21 22 27 26 18 13 11 19 31 25 21 24 23 22 23 23 24 22 22 24 25 25 26
18 18 18 18 18 19 19 19 18 17 16 16 15 14 14 14 14 14 14 14 13 13 13 14 13 14 14 13 13 13 13 13 14 15 15 15 14 14 14 14 15 15 15 14 13 12 11 12 13 13 14 14 15 14 14 13 14 16 12 11 9 11 18 26 22 20 22 26 23 17 14 11 20 35 30 21 22 25 22 23 25 24 24 24 26 27 25 24
18 18 18 18 19 19 20 20 19 18 17 17 16 15 14 14 14 14 15 14 14 14 14 14 14 15 15 14 14 14 13 13 14 14 15 15 15 15 15 14 15 15 15 14 13 12 12 12 12 12 13 12 13 12 9 7 8 13 12 13 12 15 14 16 15 17 23 24 17 15 20 18 22 33 29 21 21 24 23 23 25 25 26 25 27 28 25 24
18 19 19 19 19 20 20 20 20 19 18 18 17 16 15 15 15 15 15 15 15 15 15 14 14 15 15 15 15 14 14 14 13 14 14 14 15 15 15 15 15 14 15 14 14 13 12 12 11 11 11 11 12 9 6 8 8 10 13 15 12 16 18 11 12 14 19 21 14 14 22 24 20 20 19 19 19 21 23 25 26 26 27 26 28 30 26 24
18 18 19 19 19 20 21 21 20 20 19 19 18 17 16 16 16 16 16 16 16 15 15 15 15 16 15 15 16 15 15 15 14 15 14 14 14 14 14 14 14 14 14 14 14 14 13 12 11 11 11 12 14 13 11 12 12 9 11 13 11 12 14 10 16 19 17 17 18 17 20 24 19 17 17 20 22 22 23 26 27 26 27 28 30 32 29 26
18 18 18 19 19 20 21 21 20 20 20 19 18 18 17 17 16 17 16 16 16 16 16 16 16 16 15 16 16 15 15 15 16 16 15 15 14 14 14 14 14 15 15 15 15 15 14 14 13 13 14 13 13 15 14 13 13 11 11 12 12 10 10 11 20 23 18 17 17 15 16 21 23 21 18 18 20 23 24 26 27 27 28 29 30 32 33 31
18 18 18 18 19 20 20 20 20 20 20 19 19 18 17 17 17 17 17 17 17 17 17 17 16 16 16 16 16 15 15 16 16 16 16 15 15 15 14 14 15 15 15 16 16 16 16 15 16 18 17 15 13 14 14 13 13 13 11 11 12 11 12 16 18 15 15 16 14 12 14 20 23 23 24 21 19 21 24 26 27 27 28 30 31 33 34 33
18 18 18 18 19 19 20 20 19 19 19 19 19 18 17 17 17 17 18 18 18 18 18 18 17 18 17 17 17 16 17 17 17 17 16 16 16 16 15 15 15 15 16 16 16 17 15 16 20 21 18 16 15 15 14 14 14 13 12 12 13 13 14 18 20 15 14 15 14 14 15 17 19 22 26 23 19 22 24 25 27 28 29 30 31 32 34 33
18 18 17 18 18 19 19 19 19 19 18 18 18 18 18 18 18 17 18 19 19 19 19 18 18 19 19 18 17 17 18 19 19 18 17 17 17 16 15 15 16 15 15 15 16 15 12 15 21 20 18 19 17 16 16 16 15 15 14 15 15 16 16 18 21 20 18 17 17 18 18 17 16 19 23 21 20 22 21 22 26 27 28 30 31 31 32 31
18 17 17 17 17 18 18 18 18 18 18 18 18 18 18 18 18 18 18 19 19 19 19 19 19 19 19 18 18 17 18 19 20 19 17 18 18 17 17 17 16 16 16 17 16 14 14 20 21 16 16 19 18 18 18 17 18 18 18 19 18 17 19 19 20 20 16 16 18 19 22 21 18 20 22 23 23 23 21 21 23 24 25 27 29 29 30 29
17 17 17 17 17 17 18 18 17 17 18 18 18 18 19 19 19 18 18 19 19 19 18 18 19 19 19 18 17 17 17 18 21 20 18 19 18 18 18 17 15 13 15 18 16 13 18 22 20 17 17 18 17 18 19 18 19 20 19 21 22 22 22 21 23 23 18 18 19 21 23 21 18 20 21 24 24 22 22 22 21 23 24 25 25 26 27 27
17 17 17 18 18 18 18 18 17 17 18 17 17 18 18 19 18 18 18 16 17 18 18 18 19 19 19 18 16 15 16 18 20 20 20 19 20 20 19 18 16 14 15 16 15 17 22 21 18 19 17 16 17 17 18 18 18 19 20 21 24 26 26 25 24 25 22 21 22 22 22 19 17 19 21 25 25 21 22 23 23 24 24 24 25 25 26 26
17 18 18 18 18 18 19 18 18 18 17 17 17 17 19 19 18 18 16 15 16 18 18 18 18 18 19 18 16 15 15 16 18 20 19 19 20 19 18 18 16 17 20 16 14 19 23 21 19 18 17 17 16 16 18 18 18 20 21 21 21 22 25 26 25 25 24 23 25 25 23 21 21 19 20 24 24 21 23 24 24 25 26 25 26 27 28 28
19 19 19 19 18 18 18 18 18 18 18 18 17 18 19 18 18 17 14 15 17 18 18 19 18 18 18 17 16 16 15 16 17 18 18 18 20 18 17 17 12 12 18 16 16 21 22 19 18 17 16 16 15 17 19 18 18 20 21 20 19 20 22 23 23 25 25 25 27 25 23 25 25 22 24 28 26 22 23 26 24 24 26 26 27 29 29 29
21 21 20 20 19 18 18 17 17 17 17 18 18 18 18 18 17 15 13 16 17 16 17 18 18 18 18 17 17 16 16 17 18 19 18 18 19 17 17 19 14 12 15 15 16 21 20 19 19 17 16 15 17 20 19 16 17 20 20 19 19 20 21 21 22 23 23 26 25 22 22 25 23 21 23 27 27 22 23 28 27 24 24 27 29 29 28 28
21 21 21 21 20 20 18 18 17 16 16 17 17 17 17 17 15 13 14 16 15 16 18 18 17 17 16 16 17 16 17 18 19 19 19 19 18 18 17 18 17 15 15 14 15 19 21 21 20 18 17 18 19 20 18 17 18 19 19 19 19 19 19 19 20 21 23 26 23 20 23 26 24 20 19 24 26 22 23 27 26 24 25 27 28 27 29 30
21 21 21 21 21 20 19 18 17 17 17 17 17 17 16 16 14 13 15 15 14 17 18 18 18 17 15 15 16 16 16 18 18 17 18 18 18 18 17 16 16 15 15 15 15 18 21 20 21 21 19 19 20 19 19 18 18 18 18 18 18 18 19 19 18 19 23 23 20 21 24 27 26 21 19 25 26 23 22 24 26 27 29 29 28 28 30 31
22 22 22 21 21 20 19 19 17 17 18 17 17 17 16 16 14 14 16 15 15 17 17 18 17 15 15 15 15 15 15 15 16 16 16 16 16 16 15 15 15 12 11 13 13 14 16 16 18 19 17 17 18 17 18 18 17 18 17 18 18 17 17 18 17 18 20 18 19 22 22 24 24 20 21 27 26 23 24 24 26 27 28 29 29 29 32 32
23 23 23 22 22 21 20 19 19 18 18 17 18 17 17 17 16 16 17 17 17 16 17 17 15 14 15 14 14 16 16 16 15 15 15 15 14 15 14 15 15 12 12 13 12 11 11 11 13 13 12 15 16 14 15 15 15 16 16 17 19 17 16 17 17 17 16 16 19 21 21 21 21 20 25 29 26 25 26 26 26 25 25 27 29 30 31 31
25 24 24 24 24 23 22 21 20 20 19 18 18 17 18 18 17 18 18 18 19 19 19 18 16 16 15 15 16 16 15 17 17 15 16 16 16 17 17 18 17 15 16 16 14 13 10 10 14 13 11 13 13 13 15 14 13 13 14 16 17 17 17 17 17 16 15 15 17 19 19 19 19 20 25 26 24 24 25 26 26 25 25 26 26 27 27 27
26 26 26 26 26 25 24 23 22 21 20 19 19 19 19 18 17 18 19 20 20 19 19 19 17 17 17 18 20 18 16 17 18 17 16 17 17 17 19 19 16 16 17 14 14 17 13 11 18 19 14 14 13 12 14 14 14 14 15 17 17 18 19 20 20 20 20 19 19 20 20 19 20 23 25 24 24 24 24 25 26 26 26 25 25 24 24 25
27 27 27 27 27 26 25 24 23 22 21 20 21 21 20 18 18 18 20 21 20 18 18 19 19 19 18 18 20 21 21 20 19 17 17 18 18 19 21 20 17 16 17 15 15 18 14 13 19 20 17 18 16 15 14 13 13 15 15 16 17 17 18 20 22 22 23 24 23 24 25 24 24 25 26 26 26 25 26 27 27 27 27 27 27 27 26 25
27 27 27 27 26 26 26 25 24 23 22 22 22 22 22 22 22 22 23 22 21 20 20 19 20 21 20 19 19 19 20 20 20 19 18 20 21 22 23 22 20 18 18 18 18 19 17 17 20 19 18 20 18 16 16 15 15 15 14 16 18 17 16 18 21 22 22 24 24 24 24 24 22 21 23 26 25 24 24 26 26 27 28 28 28 29 27 25
28 27 28 27 26 26 27 26 25 24 23 24 23 22 23 23 24 25 25 23 23 23 22 21 22 22 21 21 19 19 19 19 20 21 19 21 23 23 24 23 22 22 21 20 19 21 21 20 20 17 17 20 18 17 18 17 18 17 18 19 18 17 16 17 20 22 21 22 24 22 21 22 21 18 23 26 24 23 23 23 24 25 26 27 27 28 27 25
28 28 28 27 26 27 27 26 26 26 26 26 24 23 23 24 26 26 24 24 25 25 24 24 25 24 24 24 21 21 20 18 21 22 20 22 25 23 22 23 23 22 23 22 22 24 23 21 21 18 19 20 18 18 18 18 19 19 19 20 18 19 19 19 21 23 23 23 24 23 22 22 17 16 23 25 24 23 21 22 24 24 25 27 27 27 27 25
27 28 29 27 26 27 27 27 28 27 27 27 25 24 25 26 27 26 25 25 26 26 26 27 27 27 26 26 25 25 23 21 23 24 21 24 27 24 21 22 22 21 22 21 23 25 24 23 23 21 23 22 18 19 20 18 18 18 19 18 19 20 20 21 22 23 23 24 23 24 25 23 20 21 25 24 24 25 22 22 25 24 24 26 27 28 28 27
25 28 29 26 26 28 28 28 28 28 28 28 27 28 28 27 27 26 25 25 26 26 28 29 29 29 28 29 29 28 28 27 25 25 26 26 27 28 27 24 23 23 22 21 24 26 25 25 24 22 23 22 20 22 22 19 19 20 20 19 20 21 20 22 23 22 23 24 24 25 25 24 25 27 26 24 27 29 27 27 27 26 26 26 26 29 29 29
23 28 28 24 25 28 28 28 29 29 29 29 29 31 29 26 28 29 27 26 26 27 29 29 29 30 31 31 30 29 31 31 28 29 30 27 27 33 32 25 24 26 24 24 27 29 26 25 25 25 26 25 24 26 25 23 22 24 24 24 25 25 24 25 26 25 26 27 26 28 28 28 31 30 27 28 31 32 32 32 32 31 29 27 27 29 30 31
22 26 25 23 25 28 28 29 30 30 29 30 32 33 31 29 31 32 30 29 29 30 30 30 30 31 31 31 31 30 32 32 30 31 32 30 33 37 33 27 27 29 27 28 31 31 27 27 28 28 29 28 28 30 31 29 28 29 30 29 29 29 28 29 30 29 31 30 29 30 31 32 33 31 29 31 32 32 33 33 33 33 33 32 31 31 32 33
21 23 24 23 25 26 28 29 30 30 29 31 33 34 34 34 34 34 33 33 33 33 33 31 32 33 32 32 32 31 33 34 32 32 32 33 37 37 32 30 31 31 31 31 32 32 29 29 31 31 31 30 29 30 31 31 31 33 32 31 32 32 31 31 31 31 32 32 32 34 35 34 35 34 33 33 32 32 32 33 34 34 34 35 35 34 34 35
21 22 22 23 24 25 27 28 29 29 31 33 33 33 34 35 35 35 36 37 36 36 35 35 36 35 34 34 35 33 34 36 33 34 35 36 38 37 33 32 33 34 35 33 33 34 33 32 34 34 33 33 31 29 28 29 30 32 32 31 33 33 31 30 32 33 33 31 33 37 37 35 35 37 38 37 36 36 36 36 36 36 36 36 37 37 38 38
24 24 23 22 22 25 26 27 27 28 32 33 32 33 34 35 35 35 35 38 38 37 38 38 39 38 37 38 39 36 36 38 37 37 38 37 39 41 37 34 36 38 36 35 36 37 36 36 36 36 37 36 34 31 31 32 33 34 34 33 33 34 33 34 35 36 35 35 36 37 36 35 35 36 38 40 39 37 35 35 35 37 39 40 40 40 41 41
26 26 25 23 23 24 26 27 27 29 31 31 31 33 34 34 36 36 34 37 39 37 37 39 39 39 39 40 41 40 40 41 41 41 41 39 41 44 41 36 39 40 38 38 39 39 39 40 39 39 39 39 38 38 39 40 40 40 42 41 38 38 39 39 38 36 37 39 39 37 36 36 36 34 33 34 34 32 30 32 32 33 35 37 38 40 41 42
27 27 27 26 26 26 26 25 26 28 29 30 31 33 33 32 35 37 34 36 38 36 37 39 39 39 40 40 41 42 41 42 43 43 42 40 41 45 44 39 41 42 40 42 43 41 41 42 41 41 40 39 40 41 41 42 42 43 46 46 43 43 44 44 43 41 39 39 39 38 39 39 39 37 34 33 34 33 33 34 34 33 33 33 33 34 36 37
28 28 27 28 29 29 29 26 26 27 28 30 32 33 32 33 35 37 36 35 36 37 37 38 38 39 40 40 40 41 41 42 43 42 39 38 38 40 40 38 38 39 39 41 43 42 41 42 42 42 42 41 41 40 41 42 43 45 48 48 46 45 45 45 45 44 40 38 38 39 40 40 40 40 40 40 41 40 39 39 37 37 37 36 35 35 35 36
29 29 28 28 29 30 30 29 29 29 28 29 31 32 32 33 35 36 36 35 36 37 37 37 38 39 39 39 40 41 41 41 42 41 39 37 36 35 34 34 34 35 35 35 37 38 38 39 41 41 42 44 43 42 42 43 45 46 47 48 48 47 46 45 45 44 43 42 40 40 41 42 41 40 40 42 43 43 43 40 38 37 38 39 40 40 40 40
27 28 28 29 30 29 30 31 30 31 32 31 32 32 31 32 34 34 34 34 35 36 36 35 37 37 35 36 39 40 39 39 41 41 40 39 38 37 37 36 35 35 34 34 33 34 34 36 38 39 41 42 42 41 42 44 47 48 47 48 48 47 45 44 44 44 44 44 43 42 44 44 43 42 43 44 44 43 42 41 41 41 42 43 44 43 43 43
24 25 26 27 28 29 30 30 30 31 34 35 34 34 34 34 34 34 33 33 34 35 34 33 34 34 33 34 38 38 36 38 39 39 39 39 39 39 39 39 39 38 37 36 35 34 33 34 35 37 40 41 40 40 43 45 48 48 47 46 45 44 44 44 45 45 44 44 44 44 44 44 43 45 47 45 43 43 42 41 42 42 43 45 45 44 45 45
Wind_Direction
244 245 247 250 251 252 254 256 258 261 264 268 272 275 277 278 278 277 275 272 270 267 264 260 257 253 251 250 249 248 247 246 245 246 247 248 249 249 251 252 254 256 256 257 257 257 257 257 257 256 256 256 254 254 252 249 248 244 241 240 240 239 242 244 240 238 235 228 241 251 253 250 249 249 245 243 243 242 243 243 243 242 243 244 245 244 237 238
246 247 248 251 252 254 256 258 261 264 268 271 276 278 280 280 280 278 277 275 272 269 265 261 257 253 250 248 248 248 247 246 244 245 246 247 248 249 250 252 254 255 256 256 256 256 257 257 257 257 257 257 256 256 255 251 249 247 244 240 239 238 238 241 237 238 239 236 244 252 254 250 248 249 246 244 245 244 243 245 244 242 244 245 239 237 239 240
248 249 250 252 253 255 257 260 263 266 270 274 278 280 281 281 281 280 278 277 274 271 268 263 259 254 250 248 247 248 247 246 245 247 248 247 248 249 250 252 253 254 255 255 255 255 256 257 256 256 257 258 257 258 257 254 251 248 245 242 240 239 238 242 243 244 245 242 247 252 252 252 249 247 247 245 245 245 245 246 247 242 242 242 232 233 238 237
249 250 252 253 255 257 258 261 264 268 272 276 278 280 280 281 281 280 279 278 275 273 269 265 261 256 252 249 249 249 248 248 247 249 249 249 249 250 250 251 252 253 254 255 254 255 256 257 256 256 257 258 258 258 258 256 252 249 247 243 242 242 242 246 249 246 244 243 247 251 252 253 250 246 248 248 246 246 244 245 248 244 241 242 235 229 232 234
250 252 254 255 256 257 259 262 265 269 273 276 278 279 280 280 280 280 280 278 276 274 270 267 262 258 254 252 251 251 251 251 250 250 250 250 250 251 251 251 251 251 253 253 254 255 256 257 258 258 257 257 258 257 257 256 252 252 251 244 243 246 247 249 249 246 246 246 248 250 249 250 250 248 246 247 248 246 241 238 245 246 243 241 234 228 231 236
252 254 254 255 256 257 259 262 266 269 273 275 276 278 279 280 280 281 281 280 277 274 272 268 264 261 258 255 254 253 253 254 252 250 251 251 251 251 251 250 249 250 251 252 254 255 257 258 258 258 257 257 258 255 254 255 253 253 252 245 244 248 250 249 249 250 248 248 248 249 249 249 249 248 245 244 245 245 244 242 245 248 246 241 235 231 232 235
253 254 255 255 255 256 259 262 265 268 271 272 274 275 277 279 281 282 283 282 279 277 275 272 269 265 262 260 259 257 255 255 253 251 251 252 251 251 250 250 249 248 250 252 254 256 258 259 259 258 258 256 255 253 252 254 251 249 248 246 246 248 249 249 251 251 249 248 249 249 251 251 249 247 245 244 245 246 250 251 249 252 249 238 234 232 231 233
253 254 254 254 254 256 258 260 264 266 268 269 270 272 275 278 281 284 286 286 283 280 278 275 273 270 268 264 261 259 257 256 255 253 252 252 251 251 250 249 248 248 250 252 254 257 258 259 259 257 255 253 253 252 252 251 247 244 245 246 247 247 249 250 251 250 249 249 250 251 253 252 249 251 251 249 248 248 250 251 252 253 249 239 233 231 233 237
253 253 253 253 254 255 256 259 261 264 265 266 268 269 273 276 281 285 288 290 288 284 281 278 276 273 270 266 263 261 259 257 256 255 254 253 252 251 250 248 248 248 250 253 255 257 258 258 256 254 252 252 252 252 250 248 246 242 242 246 246 246 247 248 249 250 250 251 252 253 255 255 253 254 256 253 250 249 249 251 254 249 244 241 233 229 237 241
253 252 252 253 253 253 254 257 260 262 264 265 266 268 271 275 279 283 287 291 292 289 285 280 277 273 269 267 265 262 260 259 257 256 255 253 252 250 248 247 247 248 249 252 254 256 257 257 255 252 251 250 249 249 246 245 246 244 243 246 246 246 246 246 248 250 250 251 252 254 256 257 257 257 256 254 250 249 249 248 248 241 233 230 227 230 240 240
252 252 252 252 251 250 251 255 258 261 262 263 264 266 269 273 275 279 283 288 292 292 288 282 275 271 269 267 266 264 261 259 258 256 254 251 250 248 247 246 246 247 248 250 252 253 254 254 253 250 248 249 247 247 246 244 247 248 245 246 246 247 247 246 247 248 250 251 249 252 255 255 258 258 254 256 255 252 251 249 248 242 233 229 230 238 242 240
251 251 251 250 249 248 249 252 256 259 260 261 263 265 268 270 272 275 278 282 286 287 288 285 278 272 268 266 266 265 262 261 260 257 254 251 249 248 247 246 246 246 247 249 250 251 252 251 250 248 249 249 247 246 246 246 249 249 247 249 249 249 250 248 248 247 247 250 247 245 253 259 261 255 254 259 261 256 253 254 253 244 237 236 237 241 243 243
250 250 249 248 246 245 246 250 254 256 258 259 262 264 266 268 271 272 275 278 280 283 284 285 282 277 272 267 265 264 264 264 262 259 255 252 249 247 247 246 247 247 247 249 250 251 253 253 251 250 250 248 247 248 249 250 249 250 250 251 250 253 256 251 246 246 244 245 245 243 252 262 259 253 255 257 257 258 257 257 253 241 234 241 245 246 248 248
249 248 247 246 244 242 244 247 250 253 255 259 262 264 266 268 270 271 273 275 278 279 281 281 282 281 277 272 267 265 264 263 262 261 257 253 251 249 248 247 247 247 247 248 249 252 254 256 255 252 250 248 249 250 250 250 250 252 251 250 252 256 262 256 245 242 243 244 243 237 232 231 248 256 256 253 252 254 258 256 254 250 243 246 250 246 245 248
248 247 246 245 243 241 242 244 248 251 255 259 261 264 266 268 269 270 271 273 275 277 279 279 279 279 278 275 272 267 264 263 262 261 258 256 254 251 250 248 248 246 247 247 248 251 254 256 254 251 249 248 249 248 250 252 251 252 248 251 252 212 244 258 252 240 239 244 240 228 217 211 249 262 260 253 248 244 250 254 254 256 246 238 244 238 234 243
247 246 246 245 243 241 241 242 246 250 254 258 261 264 266 267 267 268 269 270 273 275 277 278 277 277 276 274 274 271 267 264 262 260 259 258 256 254 252 251 250 249 248 247 246 249 250 252 250 248 246 242 243 241 246 251 254 253 237 237 229 189 239 264 260 240 233 243 242 221 200 189 239 256 260 254 242 235 240 250 251 255 251 238 240 236 232 244
246 246 246 245 244 242 241 241 244 248 252 257 260 263 265 266 266 267 268 269 271 274 275 277 277 276 275 275 273 270 269 266 264 262 260 260 258 257 255 254 254 252 251 248 246 246 246 247 245 244 241 235 236 233 237 240 258 262 233 222 213 189 225 268 267 246 236 242 246 224 199 191 233 250 257 254 236 230 233 244 248 251 255 249 247 247 246 252
246 246 246 245 244 242 241 241 242 245 250 254 258 261 264 265 266 266 267 268 271 274 276 277 276 275 275 275 273 271 270 267 266 264 262 261 259 258 257 257 257 256 255 252 249 248 246 246 242 242 237 231 227 207 203 205 217 253 233 226 226 198 206 242 265 256 247 236 222 220 205 198 230 248 251 250 235 231 233 240 246 245 250 254 254 253 250 251
246 246 246 245 243 241 241 241 242 244 248 252 256 259 263 265 266 266 266 268 270 273 276 276 275 274 274 275 274 273 271 269 267 264 262 260 259 259 257 257 257 255 255 254 251 248 245 243 241 239 233 230 225 208 214 217 213 242 233 221 224 211 209 233 254 253 260 244 214 222 217 202 227 252 252 253 241 236 238 241 245 244 246 250 252 254 253 253
246 245 245 244 243 241 240 241 242 244 247 250 254 258 261 264 265 266 267 267 269 272 274 274 274 275 274 274 274 274 273 270 268 265 262 261 258 257 254 253 253 252 253 253 253 251 247 245 238 233 232 233 230 223 229 233 235 250 242 225 222 215 203 224 252 254 256 252 224 226 230 209 222 240 243 253 249 240 241 244 245 244 245 247 249 252 255 254
246 245 244 244 244 242 240 240 241 243 246 249 253 257 261 264 266 268 269 268 269 271 272 272 273 273 272 271 272 273 272 269 268 267 265 263 261 258 255 253 251 250 250 251 253 253 251 248 241 238 241 240 234 229 229 229 236 242 236 235 235 224 206 218 246 262 257 252 231 227 243 229 228 238 243 255 261 248 243 247 247 246 247 248 248 249 251 253
247 245 244 244 244 243 242 241 242 244 246 250 253 258 261 264 266 268 269 270 270 270 270 271 271 270 270 270 270 270 269 268 267 267 267 265 263 260 257 255 253 249 250 251 252 255 255 255 252 248 247 244 238 236 235 232 233 235 232 230 229 221 218 233 247 260 265 256 235 236 254 247 237 243 251 255 256 251 247 249 249 248 248 249 250 250 251 255
246 245 244 243 243 243 243 243 244 245 248 251 255 259 262 264 266 268 269 270 269 269 269 269 268 268 268 268 268 267 267 268 266 265 265 264 263 262 261 256 253 252 251 250 249 250 251 253 258 256 248 245 243 241 240 240 237 235 232 229 228 224 223 242 253 253 258 253 240 246 257 256 248 251 259 257 250 251 251 248 249 249 249 250 252 253 255 258
246 245 243 242 242 243 244 245 247 248 250 254 257 261 263 264 266 268 269 270 270 269 268 267 265 265 267 267 267 264 264 268 269 266 264 263 261 260 259 255 255 256 252 249 246 245 244 248 257 260 252 249 247 246 244 244 245 241 236 231 231 236 230 231 244 249 254 254 246 250 257 261 264 266 267 262 254 251 251 250 251 252 252 251 252 253 255 256
246 244 242 241 241 243 245 246 249 251 253 257 260 263 265 267 269 270 270 270 270 267 265 264 263 263 266 266 266 264 262 264 266 265 262 261 259 257 257 256 257 257 254 250 242 241 251 254 259 258 253 253 251 250 248 245 247 247 245 239 234 242 243 236 243 251 256 260 255 252 257 261 265 264 258 256 256 252 250 252 253 254 256 255 256 256 255 257
245 243 242 241 241 243 245 247 250 253 256 259 261 265 267 269 270 270 270 270 268 264 261 261 262 264 265 265 266 265 262 262 265 265 261 257 256 256 258 257 249 243 249 254 244 244 256 259 261 260 256 256 254 253 252 247 247 248 249 246 238 241 249 248 249 253 253 259 261 256 256 257 256 257 254 254 260 261 257 255 253 255 257 257 259 259 259 261
244 243 242 243 243 244 247 250 252 254 257 260 262 265 267 268 269 268 267 263 259 260 261 262 263 262 262 263 263 259 257 260 266 266 259 255 254 253 255 255 250 248 250 252 247 250 258 260 259 261 257 254 253 252 253 248 242 245 247 247 243 243 250 253 254 255 254 253 255 256 257 256 250 253 258 259 261 264 263 259 254 255 255 253 254 255 256 259
244 244 243 244 245 247 249 252 254 256 259 261 262 264 265 266 265 264 262 254 253 258 261 262 262 260 259 260 259 255 253 253 258 263 259 254 253 249 248 247 241 250 253 245 244 252 259 261 257 256 255 252 246 244 249 247 240 244 248 249 248 248 252 256 254 255 255 253 255 258 260 258 253 250 254 258 259 261 263 262 257 254 254 252 250 251 252 255
247 246 245 245 247 249 251 254 256 259 260 260 261 262 263 263 261 259 254 249 253 260 261 261 260 258 260 260 258 255 252 249 249 256 257 254 253 247 245 246 235 240 255 249 249 258 262 264 262 257 253 246 242 245 249 247 243 246 251 252 251 253 255 257 257 257 257 256 256 258 258 259 256 251 253 258 260 256 254 259 258 252 252 252 251 251 252 252
249 247 247 248 249 251 253 255 258 260 261 262 262 261 261 259 256 252 247 247 253 258 259 262 260 259 261 260 259 257 253 251 249 251 254 253 254 248 245 251 249 249 259 257 251 257 259 260 262 258 252 248 247 251 252 247 244 246 250 252 253 255 256 256 257 257 257 258 260 257 255 257 257 256 258 261 262 253 246 254 258 254 252 254 253 252 252 252
250 248 248 249 250 251 253 255 258 260 262 264 263 261 257 254 249 243 244 247 250 252 254 258 259 259 257 256 257 254 249 251 251 252 256 255 255 254 251 255 256 252 256 257 253 257 260 262 262 257 252 252 253 254 253 248 245 245 247 250 253 256 258 258 256 254 255 259 262 257 255 258 259 257 254 254 257 254 250 253 256 257 258 259 256 251 251 251
250 249 249 249 250 251 254 257 259 260 262 263 262 258 253 249 242 240 245 245 246 251 253 254 258 258 254 253 252 248 246 251 252 250 253 255 251 251 250 251 253 250 250 254 252 254 264 269 264 257 253 253 257 258 256 251 246 246 247 248 250 250 254 256 253 253 258 262 260 256 255 259 259 255 250 251 254 257 256 255 257 259 260 261 257 252 250 250
250 250 251 251 253 255 257 260 261 262 262 260 258 255 250 246 239 238 244 246 246 249 249 252 256 252 248 247 243 242 249 254 253 247 244 245 247 248 247 246 245 242 239 242 242 245 262 269 258 256 261 259 256 252 251 249 244 242 243 244 245 242 243 249 252 254 260 265 262 255 251 256 259 256 254 256 257 257 257 259 260 261 258 257 257 254 253 252
254 253 253 254 256 258 260 260 261 261 260 258 255 252 248 246 241 238 241 245 247 245 245 248 248 244 242 239 239 241 245 249 250 248 243 242 247 251 252 250 245 238 237 238 241 242 246 252 251 256 269 265 253 242 243 250 250 244 241 243 244 241 239 244 248 248 245 247 253 255 256 261 260 253 255 261 261 257 258 263 264 263 261 260 259 257 255 252
256 256 256 257 258 260 260 259 259 258 257 255 253 249 248 247 244 243 241 243 247 246 244 244 242 241 240 238 243 245 240 243 248 247 245 241 240 242 244 247 243 236 236 235 239 243 237 237 251 256 261 262 257 250 249 253 257 250 243 246 249 247 244 244 247 247 246 247 252 260 267 268 264 261 262 266 266 263 263 265 264 264 264 264 261 258 254 252
256 256 256 257 258 259 259 257 256 255 253 251 249 247 246 242 237 239 240 240 242 243 242 242 240 241 242 242 246 245 240 243 247 244 245 244 240 242 244 244 241 235 232 225 229 243 236 227 246 255 259 258 257 256 253 248 249 251 247 244 245 246 245 248 251 253 255 258 260 265 270 271 269 271 271 268 267 267 265 263 261 261 262 262 261 259 256 256
256 256 256 256 256 257 257 256 255 254 251 249 248 245 244 241 237 237 240 240 239 240 240 240 240 239 240 245 247 246 243 243 245 244 247 248 246 248 249 246 241 236 235 233 239 248 242 234 248 260 260 256 254 254 255 249 245 251 253 247 245 248 250 251 255 258 259 261 262 264 269 270 267 268 269 269 269 267 264 262 259 257 257 257 258 259 259 258
256 256 255 255 254 254 254 254 254 253 252 250 249 246 244 244 243 240 239 240 238 239 237 235 240 239 237 241 245 248 246 240 243 245 243 247 250 249 250 249 244 241 242 245 249 252 248 246 252 258 258 258 259 258 259 259 254 249 249 251 253 257 257 256 258 259 261 264 266 266 266 267 267 263 265 270 272 266 261 260 259 257 256 255 253 255 258 258
258 256 255 254 253 252 252 252 252 251 251 251 250 250 247 246 246 243 240 240 237 237 235 233 238 240 238 238 238 244 246 234 238 244 238 241 249 248 247 249 246 244 246 246 248 250 251 251 250 254 260 261 261 260 261 263 259 251 249 254 258 258 257 259 260 261 263 264 266 267 266 267 266 257 262 272 275 268 262 259 260 260 258 255 251 251 253 254
259 258 255 253 252 252 251 249 249 249 251 251 249 248 248 248 249 247 242 240 238 237 236 234 236 238 239 239 238 242 247 238 237 245 242 241 249 249 246 247 247 246 245 245 248 251 252 251 250 255 262 262 259 259 257 256 256 255 256 257 258 257 256 257 258 261 265 265 266 268 268 269 263 257 265 272 270 269 271 268 265 261 257 255 253 251 250 250
259 258 256 253 251 252 251 249 249 248 249 250 248 247 248 249 250 248 242 240 240 238 237 237 238 240 239 240 241 242 246 245 241 245 248 248 254 253 246 245 249 250 247 247 251 251 252 253 253 254 259 261 261 257 254 256 258 259 260 260 259 258 257 257 259 261 261 262 265 267 267 267 263 261 265 266 264 269 273 271 267 264 259 255 254 252 250 248
258 258 258 255 250 250 250 249 249 248 248 249 248 247 249 249 249 248 244 241 241 240 240 239 240 241 242 242 243 243 245 246 243 244 248 249 253 254 250 248 251 253 252 254 255 254 255 258 258 256 257 259 260 260 260 261 263 263 262 262 261 261 261 263 264 262 260 259 262 265 265 265 265 264 264 264 266 268 269 267 267 266 263 258 255 254 251 249
260 260 260 256 251 249 249 248 248 248 248 248 248 247 247 247 247 248 246 243 242 241 240 240 240 241 243 243 243 244 247 248 244 245 249 250 250 254 256 255 254 255 255 256 259 259 261 263 262 261 261 259 260 265 265 264 264 264 263 262 262 261 261 261 262 261 261 262 263 264 266 267 269 269 267 266 267 266 265 266 266 266 266 264 261 258 253 249
264 263 261 257 253 251 248 247 247 247 246 246 248 249 248 247 247 249 249 246 244 244 243 242 241 241 242 244 244 244 248 250 247 247 250 253 254 254 256 258 258 259 257 257 261 263 264 265 265 264 265 265 266 268 270 269 267 265 264 262 260 259 257 258 261 262 262 261 261 261 262 266 269 270 269 269 267 264 264 267 266 265 266 266 264 262 257 251
269 265 263 259 256 254 251 248 247 247 247 246 247 250 251 250 248 247 249 249 247 247 247 246 245 244 245 247 247 246 248 252 252 251 251 254 256 257 257 259 260 260 260 261 264 265 264 264 266 267 267 268 267 266 265 264 263 265 266 265 263 263 262 261 260 259 260 259 257 258 259 262 264 266 269 269 268 267 266 268 268 265 264 264 263 263 261 257
269 267 265 262 258 256 254 251 247 245 246 247 247 248 250 252 251 248 248 250 250 249 250 250 249 249 248 249 250 249 251 254 255 255 256 257 259 259 257 258 261 261 262 264 264 264 264 264 264 265 266 266 264 261 258 258 259 261 263 263 266 269 268 265 261 258 260 259 256 255 257 259 261 264 267 268 267 267 267 267 267 265 264 263 263 262 262 259
266 266 265 263 259 256 254 253 250 247 248 249 249 248 248 250 253 252 249 250 251 250 251 252 252 252 252 252 253 252 253 255 256 256 257 260 262 261 258 259 262 262 263 264 263 263 264 264 263 264 264 264 263 261 260 261 261 261 260 260 261 262 263 263 264 262 261 260 260 258 255 255 256 259 263 265 264 264 265 265 266 265 265 264 263 261 261 260
266 265 264 262 259 258 256 255 253 252 252 252 250 250 249 249 252 253 251 250 253 253 252 253 254 255 255 255 255 255 255 257 257 257 258 260 262 264 263 262 262 262 263 263 263 263 263 264 264 263 262 262 262 261 261 262 262 262 263 262 261 260 261 264 266 266 263 261 263 263 257 254 253 252 254 258 260 260 261 262 263 265 265 263 261 260 258 257
264 264 263 261 259 259 259 257 254 253 253 252 252 252 252 249 250 252 252 252 254 254 254 255 256 256 257 257 258 258 257 257 257 258 258 258 259 261 264 263 261 261 261 261 262 263 262 261 262 261 261 260 260 261 262 263 263 263 264 265 264 263 263 264 266 267 265 263 263 262 259 257 255 253 253 254 256 257 258 258 259 261 262 261 259 260 260 258
261 261 261 260 260 259 259 256 254 253 253 252 252 252 252 251 252 253 254 253 254 254 254 256 256 256 257 258 258 258 257 257 258 257 257 257 256 256 259 260 260 261 261 261 263 263 261 260 261 262 262 261 260 260 260 261 262 262 263 265 265 264 264 265 266 267 266 265 262 259 259 258 257 256 256 255 255 256 257 258 257 258 261 262 262 262 262 261
260 260 259 258 259 258 258 256 254 253 252 251 251 252 252 252 253 254 255 254 254 255 254 254 256 257 258 258 258 257 257 258 258 259 258 258 258 257 257 258 258 260 262 263 263 263 263 263 263 264 264 263 263 264 263 262 262 261 261 264 266 267 267 266 265 265 265 264 263 261 260 261 261 260 257 257 258 259 260 261 261 259 260 262 263 263 263 261
260 259 259 258 258 257 256 256 254 252 252 252 252 253 253 252 252 253 255 254 253 254 254 254 255 257 257 256 256 256 257 258 259 260 260 259 258 258 258 258 258 258 260 261 262 263 264 265 265 265 266 267 266 266 266 264 263 263 265 267 268 268 268 266 264 263 263 264 263 262 262 262 262 261 259 259 260 261 260 259 258 257 257 259 261 262 263 261